FW2969 Weather Reports


time (UTC)temp
C
wind
direction
speed
KPH
gust
KPH
rain 1hr
cm
rain 24hr
cm
rain mn
cm
humidity
%
barometer
mb
20260902173047 25 352 0.0 0.0 0.00 0.00 0.00 47 1009.1
20260902171607 25 352 0.0 1.6 0.00 0.00 0.00 45 1009.0
20260902170048 25 351 0.0 0.0 0.00 0.00 0.00 43 1008.9
20260902164545 25 351 0.0 1.6 0.00 0.00 0.00 49 1008.7
20260902163042 25 346 0.0 3.2 0.00 0.00 0.00 56 1008.7
20260902161546 25 343 0.0 1.6 0.00 0.00 0.00 59 1008.5
20260902160043 26 339 0.0 3.2 0.00 0.00 0.00 59 1008.5
20260902154540 26 342 0.0 3.2 0.00 0.00 0.00 61 1008.4
20260902153039 27 8 0.0 4.8 0.00 0.00 0.00 64 1008.3
20260902151538 27 331 0.0 6.4 0.00 0.00 0.00 66 1008.5
20260902150036 27 264 0.0 4.8 0.00 0.00 0.00 70 1008.5
20260902144535 27 305 0.0 8.0 0.00 0.00 0.00 72 1008.6
20260902143034 27 307 1.6 8.0 0.00 0.00 0.00 69 1008.6
20260902141545 28 268 3.2 8.0 0.00 0.00 0.00 66 1008.5
20260902140032 28 313 3.2 11.3 0.00 0.00 0.00 67 1008.6
20260902134534 28 357 4.8 9.7 0.00 0.00 0.00 69 1008.5
20260902133032 27 265 4.8 9.7 0.00 0.00 0.00 70 1008.6
20260902131528 27 303 3.2 9.7 0.00 0.00 0.00 70 1008.6
20260902130029 27 292 3.2 9.7 0.00 0.00 0.00 70 1008.7
20260902124524 27 313 3.2 14.5 0.00 0.00 0.00 70 1008.8
20260902123021 27 297 1.6 9.7 0.00 0.00 0.00 68 1008.9
20260902121520 27 266 3.2 9.7 0.00 0.00 0.00 69 1009.0
20260902120017 27 296 4.8 16.1 0.00 0.00 0.00 68 1009.1
20260902114523 27 267 1.6 12.9 0.00 0.00 0.00 68 1009.4
20260902113018 27 346 3.2 12.9 0.00 0.00 0.00 71 1009.6
20260902111513 27 301 3.2 11.3 0.00 0.00 0.00 70 1009.6
20260902110012 27 301 3.2 12.9 0.00 0.00 0.00 71 1009.7
20260902104513 27 236 3.2 12.9 0.00 0.00 0.00 70 1009.8
20260902103008 27 311 1.6 6.4 0.00 0.00 0.00 73 1009.9
20260902101507 26 320 3.2 14.5 0.00 0.00 0.00 74 1009.8
20260902100007 26 321 3.2 9.7 0.00 0.00 0.00 75 1009.9
20260902094505 26 308 1.6 9.7 0.00 0.00 0.00 74 1010.0
20260902093003 26 303 3.2 11.3 0.00 0.00 0.00 73 1010.2
20260902091508 26 327 1.6 6.4 0.00 0.00 0.00 73 1010.2
20260902090000 26 288 1.6 9.7 0.00 0.00 0.00 73 1010.3
20260902084700 26 294 3.2 8.0 0.00 0.00 0.00 72 1010.3
20260902083058 26 288 0.0 12.9 0.00 0.00 0.00 72 1010.4
20260902081557 26 315 3.2 9.7 0.00 0.00 0.00 69 1010.6
20260902080055 26 320 3.2 8.0 0.00 0.00 0.00 66 1010.7
20260902074608 26 325 0.0 6.4 0.00 0.00 0.00 61 1010.8
20260902073050 26 352 0.0 4.8 0.00 0.00 0.00 59 1010.7
20260902071547 26 332 0.0 4.8 0.00 0.00 0.00 59 1010.6
20260902070046 26 313 0.0 3.2 0.00 0.00 0.00 59 1010.5
20260902064547 26 324 1.6 6.4 0.00 0.00 0.00 57 1010.5
20260902063100 25 269 0.0 0.0 0.00 0.00 0.00 55 1010.5
20260902061541 25 269 0.0 3.2 0.00 0.00 0.00 53 1010.4
20260902060053 25 245 0.0 0.0 0.00 0.00 0.00 53 1010.3
20260902054540 25 109 0.0 0.0 0.00 0.00 0.00 54 1010.3
20260902053037 25 109 0.0 0.0 0.00 0.00 0.00 56 1010.3
20260902051543 23 109 0.0 1.6 0.00 0.00 0.00 59 1010.4
20260902050032 23 109 0.0 1.6 0.00 0.00 0.00 59 1010.4
20260902044526 22 109 0.0 3.2 0.00 0.00 0.00 60 1010.4
20260902043025 21 109 0.0 0.0 0.00 0.00 0.00 63 1010.5
20260902041540 20 109 0.0 0.0 0.00 0.00 0.00 65 1010.3
20260902040026 20 109 0.0 0.0 0.00 0.00 0.00 65 1010.1
20260902034523 20 109 0.0 1.6 0.00 0.00 0.00 65 1010.2
20260902033023 20 109 0.0 1.6 0.00 0.00 0.00 65 1010.1
20260902031522 19 109 0.0 0.0 0.00 0.00 0.00 65 1010.0
20260902030021 18 109 0.0 3.2 0.00 0.00 0.00 68 1010.1
20260902024520 18 110 0.0 0.0 0.00 0.00 0.00 69 1010.1
20260902023020 18 110 0.0 0.0 0.00 0.00 0.00 72 1010.1
20260902021523 18 110 0.0 0.0 0.00 0.00 0.00 75 1010.0
20260902020017 18 110 0.0 0.0 0.00 0.00 0.00 77 1010.0
20260902014523 18 110 0.0 0.0 0.00 0.00 0.00 79 1010.2
20260902013013 18 110 0.0 0.0 0.00 0.00 0.00 77 1010.2
20260902011513 19 110 0.0 0.0 0.00 0.00 0.00 75 1010.2
20260902010009 19 110 0.0 1.6 0.00 0.00 0.00 74 1010.1
20260902004514 19 110 0.0 1.6 0.00 0.03 0.00 71 1010.2
20260902003020 20 130 0.0 3.2 0.00 0.03 0.00 69 1010.0
20260902001505 20 147 0.0 4.8 0.00 0.03 0.00 68 1010.0
20260902000104 20 109 0.0 3.2 0.00 0.03 0.00 67 1009.8
20260901234557 21 37 0.0 1.6 0.00 0.03 0.00 65 1009.5
20260901233053 21 23 0.0 1.6 0.00 0.03 0.00 63 1009.6
20260901231600 21 23 0.0 0.0 0.00 0.03 0.00 62 1009.6
20260901230052 22 14 0.0 0.0 0.00 0.03 0.00 61 1009.4
20260901224551 22 20 0.0 8.0 0.00 0.03 0.00 59 1009.4
20260901223049 22 11 0.0 3.2 0.00 0.03 0.00 59 1009.5
20260901221546 22 335 0.0 3.2 0.00 0.03 0.00 60 1009.7
20260901220048 22 97 0.0 1.6 0.00 0.03 0.00 61 1010.0
20260901214543 22 97 0.0 1.6 0.00 0.03 0.00 59 1010.2
20260901213040 22 97 0.0 0.0 0.00 0.03 0.00 58 1010.2
20260901211539 22 97 0.0 1.6 0.00 0.03 0.00 58 1010.4
20260901210042 22 97 0.0 0.0 0.00 0.03 0.00 59 1010.5
20260901204535 22 97 0.0 0.0 0.00 0.03 0.03 60 1010.7
20260901203039 22 97 0.0 0.0 0.00 0.03 0.03 61 1010.7
20260901201535 22 97 0.0 0.0 0.00 0.03 0.03 61 1010.8
20260901200032 21 97 0.0 0.0 0.00 0.03 0.03 65 1010.8
20260901194533 21 97 0.0 0.0 0.00 0.03 0.03 71 1010.8
20260901193031 20 97 0.0 0.0 0.00 0.03 0.03 78 1010.8
20260901191536 20 97 0.0 0.0 0.00 0.03 0.03 82 1010.8
20260901190030 21 97 0.0 0.0 0.00 0.03 0.03 88 1010.8
20260901184529 21 97 0.0 0.0 0.00 0.03 0.03 90 1010.7
20260901183028 21 97 0.0 1.6 0.00 0.03 0.03 91 1010.7
20260901181532 21 97 0.0 3.2 0.00 0.03 0.03 91 1010.7
20260901180030 21 97 0.0 1.6 0.00 0.03 0.03 92 1010.6